Regional Weather Roundup
Issued by NWS

Home | Current Version | Previous Version | Text Only | Print | Product List | Glossary On
Versions: 1 2 3 4 5 6 7 8 9 10 11 12 13 14 15 16 17 18 19 20 21 22 23 24 25 26 27 28 29 30 31 32 33 34 35 36 37 38 39 40 41 42 43 44 45 46 47 48 49 50
000
ASUS43 KDMX 290208
RWRIA

WEATHER ROUNDUP FOR IOWA
NATIONAL WEATHER SERVICE DES MOINES IA
900 PM CDT THU JUL 28 2016

NOTE: "FAIR" INDICATES FEW OR NO CLOUDS BELOW 12,000 FEET WITH NO
SIGNIFICANT WEATHER AND/OR OBSTRUCTIONS TO VISIBILITY.

* - THESE STATIONS ARE NOT NWS STATIONS...THUS NOT UNDER NWS
QUALITY CONTROL.  THEY ALSO DO NOT REPORT WEATHER SUCH
AS PRECIPITATION OR FOG.

IAZ001>003-012>014-020>022-031>034-043>046-290300-
   NORTHWEST IOWA

CITY           SKY/WX    TMP DP  RH WIND       PRES   REMARKS
CARROLL *      PTCLDY    68  64  88 N5        30.00F
CHEROKEE *     MOCLDY    71  64  79 CALM      30.02S
DENISON *      CLOUDY    68  64  88 NE5       29.99F
LE MARS *      PTCLDY    73  63  68 N6        30.03S
SHELDON *      CLEAR     68  63  83 NE7       30.02F
SIOUX CITY     PTCLDY    76  63  64 NE6       30.01R
SPENCER        MOCLDY    68  62  81 N6        30.03R
STORM LAKE *   PTCLDY    70  63  78 NE7       30.03S
$$

IAZ055>058-069>071-079>083-090>094-290300-
   SOUTHWEST IOWA

CITY           SKY/WX    TMP DP  RH WIND       PRES   REMARKS
ATLANTIC *     MOCLDY    70  64  83 NE5       29.99S
CLARINDA *       N/A     73  66  78 MISG      29.99R
COUNCIL BLFS * MOCLDY    73  64  73 NE8       29.99S
CRESTON *      PTCLDY    70  63  78 N7        29.99F
HARLAN  *      CLOUDY    70  64  83 NE5       30.03S
LAMONI         CLEAR     71  65  81 N8        29.96F
RED OAK *      PTCLDY    72  64  78 NE7       29.97F
SHENANDOAH *   CLOUDY    73  68  83 N6        29.98S
$$

IAZ047>049-059>061-072>074-084-290300-
   CENTRAL IOWA

CITY           SKY/WX    TMP DP  RH WIND       PRES   REMARKS
AMES           PTCLDY    71  66  84 NW8       29.97F
ANKENY *         N/A    N/A N/A N/A MISG        N/A
BOONE *          N/A     70  64  83 NW7       29.98F
CHARITON *       N/A    N/A N/A N/A MISG        N/A
DES MOINES     PTCLDY    74  62  66 N6        29.96F
GRINNELL*      PTCLDY    68  64  87 NW6       29.97S
KNOXVILLE *    CLEAR     72  64  78 NW8       29.95F
MARSHALLTOWN   PTCLDY    69  66  90 N8        29.97R
NEWTON *       PTCLDY    70  66  88 NW6       29.96S
PELLA *        CLEAR     70  64  81 NW5       29.96F
PERRY *          N/A     69  65  88 N3        29.98F
$$

IAZ004>006-015-016-023>025-035-036-290300-
   NORTH CENTRAL IOWA

CITY           SKY/WX    TMP DP  RH WIND       PRES   REMARKS
ALGONA *       PTCLDY    68  64  88 NE7       30.03R
ESTHERVILLE    MOCLDY    66  63  90 NE6       30.03R
FORT DODGE *   CLOUDY    70  63  78 CALM      30.01S
MASON CITY     PTCLDY    66  61  84 NE12      30.02R
FOREST CITY *  MOCLDY    66  63  88 NE8       30.02R
IOWA FALLS *   CLOUDY    69  64  83 N6        30.01R
$$

IAZ007>011-017>019-026>030-037>042-050>054-066-290300-
   NORTHEAST IOWA

CITY           SKY/WX    TMP DP  RH WIND       PRES   REMARKS
CEDAR RAPIDS   CLEAR     70  68  93 NW7       29.93R
CHARLES CITY * CLOUDY    66  64  94 N8        30.00R
CLINTON *      MOCLDY    73  71  93 N5        29.90R
DECORAH *      CLOUDY    64  64 100 N7G13     29.97S
DUBUQUE        CLEAR     69  66  90 N7        29.93R
MONTICELLO *   CLOUDY    70  66  88 N8        29.92S
OELWEIN *      CLOUDY    66  63  88 N8        29.98R
WATERLOO       CLOUDY    68  62  81 N8        29.96R
$$

IAZ064-065-067-068-078-290300-
   EAST CENTRAL IOWA

CITY           SKY/WX    TMP DP  RH WIND       PRES   REMARKS
DAVENPORT      CLEAR     72  68  87 NW6       29.91R
IOWA CITY      CLEAR     74  66  76 NW8       29.94R
MT. PLEASANT * CLEAR     75  67  75 NW6       29.93R
MUSCATINE *    CLEAR     73  66  78 N5        29.91S
QUAD CITIES    CLEAR     78  66  66 NW10      29.89R HX  80
$$

IAZ062-063-075>077-085>089-095>099-290300-
   SOUTHEAST IOWA

CITY           SKY/WX    TMP DP  RH WIND       PRES   REMARKS
BURLINGTON     CLEAR     72  68  87 CALM      29.92R FOG
FAIRFIELD *    CLEAR     70  66  88 NW7       29.94R
KEOKUK *       CLEAR     73  68  83 CALM      29.92R
OTTUMWA        CLEAR     70  64  81 NW7       29.95R
WASHINGTON *   CLEAR     72  68  88 NW7       29.94R
$$

ABBREVIATIONS USED IN REMARKS
   TC - TEMPERATURES IN CELSIUS
  WCI - WIND CHILL INDEX
   HX - HEAT INDEX
  VSB - VISIBILITY
$$




USA.gov is the U.S. government's official web portal to all federal, state and local government web resources and services.